Lowell, ID

4:09 AM MDT on July 28, 2017 (GMT -0600)
Lowell

Weather History for KP69 - October, 2013

Change the Weather History Date:

Tuesday, October 8, 2013

  Actual Average Record
Temperature  
Mean Temperature 49 °F -  
Max Temperature 53 °F 61 °F 78 °F (2003)
Min Temperature 45 °F 40 °F 32 °F (2012)
Degree Days  
Heating Degree Days 16    
Moisture  
Dew Point 45 °F    
Average Humidity 90    
Maximum Humidity 97    
Minimum Humidity 71    
Precipitation  
Precipitation 0.09 in - - ()
Sea Level Pressure  
Sea Level Pressure 29.99 in    
Wind  
Wind Speed 0 mph (North)    
Max Wind Speed 0 mph    
Max Gust Speed -    
Averages and records for this station are not official NWS values.
T = Trace of Precipitation, MM = Missing Value Source: NWS Daily Summary

Daily Weather History Graph

Daily Weather History Graph

Search for Another Location

Airport or City:

Trip Planner

Search our weather history database for the weather conditions in past years. The results will help you decide how hot, cold, wet, or windy it might be!

Date:

Astronomy

Oct. 08, 2013 Rise Set
Actual Time 7:50 AM MDT 7:08 PM MDT
Civil Twilight 7:20 AM MDT 7:38 PM MDT
Nautical Twilight 6:45 AM MDT 8:12 PM MDT
Astronomical Twilight 6:10 AM MDT 8:47 PM MDT
Moon 12:01 PM MDT (10/8) 9:36 PM MDT (10/8)
Length of Visible Light 12h 17m
Length of Day
11h 17m
Waxing Crescent, 16% of the Moon is Illuminated
Oct 8
Waxing Crescent
Oct 11
First Quarter
Oct 18
Full
Oct 26
Last Quarter
Nov 3
New

Hourly Weather History & Observations

Time (MDT) Temp. Dew Point Humidity Pressure Visibility Wind Dir Wind Speed Gust Speed Precip Events Conditions
12:52 AM 46.9 °F 46.0 °F 97% 30.00 in - Calm Calm - N/A   Unknown
1:52 AM 46.9 °F 46.0 °F 97% 30.00 in - Calm Calm - N/A   Unknown
2:52 AM 46.9 °F 44.1 °F 90% 29.99 in - Calm Calm - N/A   Unknown
3:52 AM 46.0 °F 44.1 °F 93% 30.00 in - Calm Calm - N/A   Unknown
4:52 AM 45.0 °F 43.0 °F 93% 30.00 in - Calm Calm - N/A   Unknown
5:52 AM 45.0 °F 43.0 °F 93% 30.00 in - Calm Calm - N/A   Unknown
6:52 AM 45.0 °F 43.0 °F 93% 30.00 in - Calm Calm - N/A   Unknown
7:52 AM 45.0 °F 43.0 °F 93% 30.00 in - Calm Calm - N/A   Unknown
8:52 AM 45.0 °F 44.1 °F 97% 30.01 in - Calm Calm - N/A   Unknown
9:52 AM 46.9 °F 44.1 °F 90% 30.01 in - Calm Calm - N/A   Unknown
10:52 AM 48.0 °F 45.0 °F 89% 29.99 in - Calm Calm - 0.01 in   Unknown
11:52 AM 48.9 °F 45.0 °F 86% 29.99 in - Calm Calm - 0.01 in   Unknown
12:52 PM 52.0 °F 43.0 °F 71% 29.96 in - Calm Calm - N/A   Unknown
1:52 PM 52.0 °F 46.9 °F 83% 29.95 in - Calm Calm - N/A   Unknown
2:52 PM 53.1 °F 46.9 °F 80% 29.94 in - Calm Calm - N/A   Unknown
3:52 PM 53.1 °F 46.9 °F 80% 29.94 in - Calm Calm - 0.01 in   Unknown
4:52 PM 52.0 °F 46.0 °F 80% 29.94 in - Calm Calm - N/A   Unknown
5:52 PM 51.1 °F 48.0 °F 89% 29.96 in - Calm Calm - N/A   Unknown
6:52 PM 48.9 °F 46.9 °F 93% 29.97 in - Calm Calm - N/A   Unknown
7:52 PM 48.0 °F 46.0 °F 93% 29.99 in - Calm Calm - N/A   Unknown
8:52 PM 46.9 °F 45.0 °F 93% 30.01 in - Calm Calm - 0.01 in   Unknown
9:52 PM 46.9 °F 45.0 °F 93% 30.01 in - Calm Calm - 0.02 in   Unknown
10:52 PM 46.0 °F 45.0 °F 96% 30.02 in - Calm Calm - 0.03 in   Unknown
11:52 PM 46.0 °F 44.1 °F 93% 30.01 in - Calm Calm - N/A   Unknown